| time (UTC) | temp F | wind direction | speed MPH | gust MPH | rain 1hr in | rain 24hr in | rain mn in | humidity % | barometer mb |
| 20260507214001 | 65 | 0.0 | 0.0 | 0.00 | 0.00 | 0.00 | 10 | 1013.4 | |
| 20260507213002 | 66 | 0.0 | 0.0 | 0.00 | 0.00 | 0.00 | 10 | 1013.3 | |
| 20260507212001 | 65 | 0.0 | 0.0 | 0.00 | 0.00 | 0.00 | 10 | 1013.3 | |
| 20260507211001 | 64 | 0.0 | 0.0 | 0.00 | 0.00 | 0.00 | 10 | 1013.3 | |
| 20260507210001 | 64 | 0.0 | 0.0 | 0.00 | 0.00 | 0.00 | 10 | 1013.3 | |
| 20260507205001 | 64 | 0.0 | 0.0 | 0.00 | 0.00 | 0.00 | 10 | 1013.3 | |
| 20260507204001 | 65 | 0.0 | 0.0 | 0.00 | 0.00 | 0.00 | 10 | 1013.3 | |
| 20260507203001 | 65 | 0.0 | 0.0 | 0.00 | 0.00 | 0.00 | 10 | 1013.3 | |
| 20260507202001 | 66 | 0.0 | 0.0 | 0.00 | 0.00 | 0.00 | 10 | 1013.2 | |
| 20260507201001 | 67 | 0.0 | 0.0 | 0.00 | 0.00 | 0.00 | 10 | 1013.2 | |
| 20260507200001 | 69 | 0.0 | 0.0 | 0.00 | 0.00 | 0.00 | 92 | 1013.2 | |
| 20260507195001 | 70 | 0.0 | 0.0 | 0.00 | 0.00 | 0.00 | 94 | 1013.1 | |
| 20260507194002 | 70 | 0.0 | 0.0 | 0.00 | 0.00 | 0.00 | 99 | 1013.1 | |
| 20260507193001 | 70 | 0.0 | 0.0 | 0.00 | 0.00 | 0.00 | 10 | 1013.1 | |
| 20260507192001 | 70 | 0.0 | 0.0 | 0.00 | 0.00 | 0.00 | 98 | 1013.1 | |
| 20260507191001 | 70 | 0.0 | 0.0 | 0.00 | 0.00 | 0.00 | 91 | 1013.1 | |
| 20260507190002 | 69 | 0.0 | 0.0 | 0.00 | 0.00 | 0.00 | 95 | 1013.0 | |
| 20260507185001 | 69 | 0.0 | 0.0 | 0.00 | 0.00 | 0.00 | 96 | 1013.1 | |
| 20260507184001 | 69 | 0.0 | 0.0 | 0.00 | 0.00 | 0.00 | 93 | 1013.2 | |
| 20260507183001 | 70 | 0.0 | 0.0 | 0.00 | 0.00 | 0.00 | 87 | 1013.1 | |
| 20260507182001 | 70 | 0.0 | 0.0 | 0.00 | 0.00 | 0.00 | 92 | 1013.1 | |
| 20260507181001 | 71 | 0.0 | 0.0 | 0.00 | 0.00 | 0.00 | 82 | 1013.1 | |
| 20260507180001 | 71 | 0.0 | 0.0 | 0.00 | 0.00 | 0.00 | 81 | 1013.2 | |
| 20260507175001 | 71 | 0.0 | 0.0 | 0.00 | 0.00 | 0.00 | 80 | 1013.2 | |
| 20260507174001 | 71 | 0.0 | 0.0 | 0.00 | 0.00 | 0.00 | 85 | 1013.1 | |
| 20260507173001 | 71 | 0.0 | 0.0 | 0.00 | 0.00 | 0.00 | 93 | 1013.1 | |
| 20260507172001 | 71 | 0.0 | 0.0 | 0.00 | 0.00 | 0.00 | 87 | 1013.0 | |
| 20260507171001 | 71 | 0.0 | 0.0 | 0.00 | 0.00 | 0.00 | 86 | 1013.1 | |
| 20260507170001 | 71 | 0.0 | 0.0 | 0.00 | 0.00 | 0.00 | 88 | 1013.0 | |
| 20260507165001 | 71 | 0.0 | 0.0 | 0.00 | 0.00 | 0.00 | 94 | 1013.0 | |
| 20260507164001 | 71 | 0.0 | 0.0 | 0.00 | 0.00 | 0.00 | 94 | 1013.1 | |
| 20260507163001 | 71 | 0.0 | 0.0 | 0.00 | 0.00 | 0.00 | 95 | 1013.0 | |
| 20260507162001 | 71 | 0.0 | 0.0 | 0.00 | 0.00 | 0.00 | 95 | 1012.8 | |
| 20260507161001 | 71 | 0.0 | 0.0 | 0.00 | 0.00 | 0.00 | 94 | 1012.9 | |
| 20260507160001 | 71 | 0.0 | 0.0 | 0.00 | 0.00 | 0.00 | 92 | 1013.0 | |
| 20260507155001 | 71 | 0.0 | 0.0 | 0.00 | 0.00 | 0.00 | 91 | 1013.0 | |
| 20260507154001 | 71 | 0.0 | 0.0 | 0.00 | 0.00 | 0.00 | 92 | 1013.1 | |
| 20260507153001 | 71 | 0.0 | 0.0 | 0.00 | 0.00 | 0.00 | 91 | 1013.0 | |
| 20260507152001 | 71 | 0.0 | 0.0 | 0.00 | 0.00 | 0.00 | 89 | 1013.0 | |
| 20260507151001 | 71 | 0.0 | 0.0 | 0.00 | 0.00 | 0.00 | 87 | 1013.0 | |
| 20260507150001 | 71 | 0.0 | 0.0 | 0.00 | 0.00 | 0.00 | 84 | 1013.2 | |
| 20260507145001 | 71 | 0.0 | 0.0 | 0.00 | 0.00 | 0.00 | 84 | 1013.2 | |
| 20260507144001 | 71 | 0.0 | 0.0 | 0.00 | 0.00 | 0.00 | 87 | 1013.3 | |
| 20260507143001 | 71 | 0.0 | 0.0 | 0.00 | 0.00 | 0.00 | 80 | 1013.3 | |
| 20260507142001 | 71 | 0.0 | 0.0 | 0.00 | 0.00 | 0.00 | 78 | 1013.4 | |
| 20260507141001 | 71 | 0.0 | 0.0 | 0.00 | 0.00 | 0.00 | 83 | 1013.4 | |
| 20260507140001 | 71 | 0.0 | 0.0 | 0.00 | 0.00 | 0.00 | 82 | 1013.5 | |
| 20260507135001 | 71 | 0.0 | 0.0 | 0.00 | 0.00 | 0.00 | 86 | 1013.6 | |
| 20260507134001 | 71 | 0.0 | 0.0 | 0.00 | 0.00 | 0.00 | 86 | 1013.9 | |
| 20260507133001 | 71 | 0.0 | 0.0 | 0.00 | 0.00 | 0.00 | 84 | 1014.0 | |
| 20260507132001 | 71 | 0.0 | 0.0 | 0.00 | 0.00 | 0.00 | 84 | 1014.1 | |
| 20260507131001 | 71 | 0.0 | 0.0 | 0.00 | 0.00 | 0.00 | 81 | 1014.1 | |
| 20260507130001 | 71 | 0.0 | 0.0 | 0.00 | 0.00 | 0.00 | 82 | 1014.3 | |
| 20260507125001 | 71 | 0.0 | 0.0 | 0.00 | 0.00 | 0.00 | 77 | 1014.3 | |
| 20260507124001 | 71 | 0.0 | 0.0 | 0.00 | 0.00 | 0.00 | 81 | 1014.4 | |
| 20260507123001 | 71 | 0.0 | 0.0 | 0.00 | 0.00 | 0.00 | 88 | 1014.3 | |
| 20260507122001 | 71 | 0.0 | 0.0 | 0.00 | 0.00 | 0.00 | 79 | 1014.3 | |
| 20260507121001 | 70 | 0.0 | 0.0 | 0.00 | 0.00 | 0.00 | 77 | 1014.3 | |
| 20260507120001 | 70 | 0.0 | 0.0 | 0.00 | 0.00 | 0.00 | 73 | 1014.2 | |
| 20260507115001 | 70 | 0.0 | 0.0 | 0.00 | 0.00 | 0.00 | 78 | 1014.2 | |
| 20260507114001 | 70 | 0.0 | 0.0 | 0.00 | 0.00 | 0.00 | 73 | 1014.3 | |
| 20260507113001 | 70 | 0.0 | 0.0 | 0.00 | 0.00 | 0.00 | 76 | 1014.4 | |
| 20260507112001 | 70 | 0.0 | 0.0 | 0.00 | 0.00 | 0.00 | 75 | 1014.5 | |
| 20260507111001 | 69 | 0.0 | 0.0 | 0.00 | 0.00 | 0.00 | 76 | 1014.6 | |
| 20260507110001 | 70 | 0.0 | 0.0 | 0.00 | 0.00 | 0.00 | 83 | 1014.7 | |
| 20260507105001 | 70 | 0.0 | 0.0 | 0.00 | 0.00 | 0.00 | 85 | 1014.8 | |
| 20260507104001 | 69 | 0.0 | 0.0 | 0.00 | 0.00 | 0.00 | 79 | 1014.9 | |
| 20260507103001 | 69 | 0.0 | 0.0 | 0.00 | 0.00 | 0.00 | 85 | 1014.9 | |
| 20260507102001 | 69 | 0.0 | 0.0 | 0.00 | 0.00 | 0.00 | 88 | 1015.0 | |
| 20260507101001 | 69 | 0.0 | 0.0 | 0.00 | 0.00 | 0.00 | 87 | 1014.8 | |
| 20260507100001 | 69 | 0.0 | 0.0 | 0.00 | 0.00 | 0.00 | 89 | 1014.9 | |
| 20260507095001 | 69 | 0.0 | 0.0 | 0.00 | 0.00 | 0.00 | 85 | 1014.9 | |
| 20260507094001 | 69 | 0.0 | 0.0 | 0.00 | 0.00 | 0.00 | 85 | 1014.8 | |
| 20260507093001 | 69 | 0.0 | 0.0 | 0.00 | 0.00 | 0.00 | 84 | 1014.6 | |
| 20260507092004 | 70 | 0.0 | 0.0 | 0.00 | 0.00 | 0.00 | 82 | 1014.5 | |
| 20260507091001 | 70 | 0.0 | 0.0 | 0.00 | 0.00 | 0.00 | 78 | 1014.5 | |
| 20260507090001 | 70 | 0.0 | 0.0 | 0.00 | 0.00 | 0.00 | 79 | 1014.5 | |
| 20260507085001 | 70 | 0.0 | 0.0 | 0.00 | 0.00 | 0.00 | 81 | 1014.5 | |
| 20260507084001 | 70 | 0.0 | 0.0 | 0.00 | 0.00 | 0.00 | 82 | 1014.5 | |
| 20260507083001 | 70 | 0.0 | 0.0 | 0.00 | 0.00 | 0.00 | 84 | 1014.5 | |
| 20260507082000 | 70 | 0.0 | 0.0 | 0.00 | 0.00 | 0.00 | 89 | 1014.5 | |
| 20260507081001 | 70 | 0.0 | 0.0 | 0.00 | 0.00 | 0.00 | 85 | 1014.4 | |
| 20260507080001 | 71 | 0.0 | 0.0 | 0.00 | 0.00 | 0.00 | 82 | 1014.5 | |
| 20260507075001 | 71 | 0.0 | 0.0 | 0.00 | 0.00 | 0.00 | 87 | 1014.5 | |
| 20260507074001 | 70 | 0.0 | 0.0 | 0.00 | 0.00 | 0.00 | 89 | 1014.6 | |
| 20260507073000 | 70 | 0.0 | 0.0 | 0.00 | 0.00 | 0.00 | 91 | 1014.6 | |
| 20260507072001 | 69 | 0.0 | 0.0 | 0.00 | 0.00 | 0.00 | 98 | 1014.7 | |
| 20260507071000 | 69 | 0.0 | 0.0 | 0.00 | 0.00 | 0.00 | 10 | 1014.6 | |
| 20260507070001 | 69 | 0.0 | 0.0 | 0.00 | 0.00 | 0.00 | 10 | 1014.6 | |
| 20260507065001 | 67 | 0.0 | 0.0 | 0.00 | 0.00 | 0.00 | 10 | 1014.5 | |
| 20260507064000 | 68 | 0.0 | 0.0 | 0.00 | 0.00 | 0.00 | 10 | 1014.4 | |
| 20260507063001 | 67 | 0.0 | 0.0 | 0.00 | 0.00 | 0.00 | 10 | 1014.4 | |
| 20260507062000 | 66 | 0.0 | 0.0 | 0.00 | 0.00 | 0.00 | 10 | 1014.3 | |
| 20260507061000 | 67 | 0.0 | 0.0 | 0.00 | 0.00 | 0.00 | 10 | 1014.2 | |
| 20260507060001 | 66 | 0.0 | 0.0 | 0.00 | 0.00 | 0.00 | 10 | 1014.2 | |
| 20260507055001 | 66 | 0.0 | 0.0 | 0.00 | 0.00 | 0.00 | 10 | 1014.1 | |
| 20260507054000 | 64 | 0.0 | 0.0 | 0.00 | 0.00 | 0.00 | 10 | 1014.0 | |
| 20260507053001 | 64 | 0.0 | 0.0 | 0.00 | 0.00 | 0.00 | 10 | 1014.0 | |
| 20260507052000 | 64 | 0.0 | 0.0 | 0.00 | 0.00 | 0.00 | 10 | 1013.9 | |
| 20260507051001 | 63 | 0.0 | 0.0 | 0.00 | 0.00 | 0.00 | 10 | 1013.9 | |
| 20260507050000 | 62 | 0.0 | 0.0 | 0.00 | 0.00 | 0.00 | 10 | 1013.6 | |
| 20260507045001 | 62 | 0.0 | 0.0 | 0.00 | 0.00 | 0.00 | 10 | 1013.6 | |
| 20260507044001 | 62 | 0.0 | 0.0 | 0.00 | 0.00 | 0.00 | 10 | 1013.5 | |
| 20260507043001 | 61 | 0.0 | 0.0 | 0.00 | 0.00 | 0.00 | 10 | 1013.4 | |
| 20260507042000 | 61 | 0.0 | 0.0 | 0.00 | 0.00 | 0.00 | 10 | 1013.5 | |
| 20260507041000 | 61 | 0.0 | 0.0 | 0.00 | 0.00 | 0.00 | 10 | 1013.4 | |
| 20260507040000 | 62 | 0.0 | 0.0 | 0.00 | 0.00 | 0.00 | 10 | 1013.4 | |
| 20260507035000 | 61 | 0.0 | 0.0 | 0.00 | 0.00 | 0.00 | 10 | 1013.3 | |
| 20260507034000 | 61 | 0.0 | 0.0 | 0.00 | 0.00 | 0.00 | 10 | 1013.2 | |
| 20260507033001 | 62 | 0.0 | 0.0 | 0.00 | 0.00 | 0.00 | 10 | 1013.2 | |
| 20260507032000 | 61 | 0.0 | 0.0 | 0.00 | 0.00 | 0.00 | 10 | 1013.3 | |
| 20260507031001 | 61 | 0.0 | 0.0 | 0.00 | 0.00 | 0.00 | 10 | 1013.4 | |
| 20260507030000 | 61 | 0.0 | 0.0 | 0.00 | 0.00 | 0.00 | 10 | 1013.3 | |
| 20260507025000 | 62 | 0.0 | 0.0 | 0.00 | 0.00 | 0.00 | 10 | 1013.4 | |
| 20260507024001 | 62 | 0.0 | 0.0 | 0.00 | 0.00 | 0.00 | 10 | 1013.4 | |
| 20260507023001 | 62 | 0.0 | 0.0 | 0.00 | 0.00 | 0.00 | 10 | 1013.3 | |
| 20260507022000 | 62 | 0.0 | 0.0 | 0.00 | 0.00 | 0.00 | 10 | 1013.3 | |
| 20260507021000 | 61 | 0.0 | 0.0 | 0.00 | 0.00 | 0.00 | 10 | 1013.2 | |
| 20260507020001 | 61 | 0.0 | 0.0 | 0.00 | 0.00 | 0.00 | 10 | 1013.2 | |
| 20260507015000 | 61 | 0.0 | 0.0 | 0.00 | 0.00 | 0.00 | 10 | 1013.2 | |
| 20260507014000 | 62 | 0.0 | 0.0 | 0.00 | 0.00 | 0.00 | 10 | 1013.1 | |
| 20260507013001 | 62 | 0.0 | 0.0 | 0.00 | 0.00 | 0.00 | 10 | 1013.1 | |
| 20260507012000 | 62 | 0.0 | 0.0 | 0.00 | 0.00 | 0.00 | 10 | 1013.1 | |
| 20260507011001 | 62 | 0.0 | 0.0 | 0.00 | 0.00 | 0.00 | 10 | 1013.1 | |
| 20260507010000 | 62 | 0.0 | 0.0 | 0.00 | 0.00 | 0.00 | 10 | 1013.1 | |
| 20260507005001 | 63 | 0.0 | 0.0 | 0.00 | 0.00 | 0.00 | 10 | 1013.1 | |
| 20260507004001 | 63 | 0.0 | 0.0 | 0.00 | 0.00 | 0.00 | 10 | 1013.2 | |
| 20260507003001 | 64 | 0.0 | 0.0 | 0.00 | 0.00 | 0.00 | 10 | 1013.3 | |
| 20260507002001 | 64 | 0.0 | 0.0 | 0.00 | 0.00 | 0.00 | 10 | 1013.2 | |
| 20260507001000 | 65 | 0.0 | 0.0 | 0.00 | 0.00 | 0.00 | 10 | 1013.1 | |
| 20260507000001 | 65 | 0.0 | 0.0 | 0.00 | 0.00 | 0.00 | 10 | 1013.1 | |
| 20260506235000 | 66 | 0.0 | 0.0 | 0.00 | 0.00 | 0.00 | 10 | 1013.1 | |
| 20260506234000 | 67 | 0.0 | 0.0 | 0.00 | 0.00 | 0.00 | 10 | 1013.1 | |
| 20260506233000 | 66 | 0.0 | 0.0 | 0.00 | 0.00 | 0.00 | 94 | 1013.1 | |
| 20260506232001 | 66 | 0.0 | 0.0 | 0.00 | 0.00 | 0.00 | 88 | 1013.1 | |
| 20260506231000 | 66 | 0.0 | 0.0 | 0.00 | 0.00 | 0.00 | 93 | 1013.1 | |
| 20260506230000 | 67 | 0.0 | 0.0 | 0.00 | 0.00 | 0.00 | 89 | 1013.1 | |
| 20260506225000 | 67 | 0.0 | 0.0 | 0.00 | 0.00 | 0.00 | 99 | 1013.1 | |
| 20260506224000 | 70 | 0.0 | 0.0 | 0.00 | 0.00 | 0.00 | 10 | 1013.0 | |
| 20260506223000 | 71 | 0.0 | 0.0 | 0.00 | 0.00 | 0.00 | 10 | 1012.9 | |
| 20260506222001 | 71 | 0.0 | 0.0 | 0.00 | 0.00 | 0.00 | 10 | 1012.8 | |
| 20260506220001 | 71 | 0.0 | 0.0 | 0.00 | 0.00 | 0.00 | 10 | 1012.9 | |
| 20260506215001 | 71 | 0.0 | 0.0 | 0.00 | 0.00 | 0.00 | 10 | 1012.9 |